Location: Unspecified
(42.3650°N, 71.1030°W)
Time: 17:14:48
(UTC+00:00)

Transit 2A - Pass Details

Date: 27 June 2024
Orbit: 591 x 960 km, 66.7° (Epoch: 16 July)

Event Time Altitude Azimuth Distance (km) Brightness Sun altitude
Rises 00:58:40 0° 338° (NNW) 3,487 10.6 -5.8°
Reaches altitude 10° 01:03:15 10° 10° (N) 2,620 9.2 -6.4°
Maximum altitude 01:05:17 12° 29° (NNE) 2,528 8.8 -6.7°
Drops below altitude 10° 01:07:21 10° 49° (NE) 2,665 8.7 -7.0°
Sets 01:12:07 0° 81° (E) 3,638 9.1 -7.7°
